www.pogodaiklimat.ru

Погода и климат >> Архив погоды >> Норвегия >> Маяк Skrova


ПОГОДА на Маяке Skrova

  • Прогноз погоды на Маяке Skrova
  • Монитор погоды на Маяке Skrova

АРХИВ ПОГОДЫ на Маяке Skrova

Время (UTC), дата Ветер
(напр.,м/с)
 
Видим.   Явления Облачность Т
(С)
Тd
(С)
f
(%)
Тe
(С)
Тes
(С)
Комфортность P
(гПа)
Po
(гПа)
Тmin
(С)
Tmax
(С)
R
(мм)
R24
(мм)
S
(см)
04 19.06 В 4
{6}
н/о н/о +10.3 +8.6 89 +8 +8 1007.7 1006.4
05 19.06 В 3
{6}
н/о н/о +10.2 +9.0 92 +8 +8 1007.9 1006.6
06 19.06 В 4
{7}
>70 км {ливн. осадки} 10/10 600 м
[Cu Sc]
+10.1 +8.9 92 +7 +7 1008.2 1006.9 +9.8 +11.1
07 19.06 СВ 1
{5}
н/о н/о +11.6 +9.3 86 +11 +11 1008.5 1007.2
08 19.06 В 3
{4}
н/о н/о +11.3 +8.9 85 +9 +9 1008.9 1007.6
09 19.06 В 3
{4}
н/о н/о +11.5 +9.3 86 +10 +10 1009.4 1008.1
10 19.06 ЮВ 2
{3}
н/о н/о +13.4 +9.3 76 +13 +13 1009.8 1008.5
11 19.06 Ю 2
{3}
н/о н/о +12.5 +9.9 84 +12 +12 1010.1 1008.8
12 19.06 ЮЗ 4
{5}
>70 км 8/8 600 м
[Sc]
+11.8 +9.5 86 +10 +11 1010.6 1009.3
13 19.06 ЮЗ 4
{5}
н/о н/о +11.7 +8.9 83 +10 +10 1011.1 1009.8
14 19.06 ЮЗ 5
{6}
н/о н/о +12.0 +9.4 84 +10 +10 1011.3 1010.0
15 19.06 ЮЗ 5
{6}
н/о н/о +11.7 +8.7 82 +9 +9 1011.5 1010.2
16 19.06 ЮЗ 4
{7}
н/о н/о +11.2 +8.6 84 +9 +9 1011.9 1010.6
17 19.06 ЮЗ 2
{5}
н/о н/о +11.5 +9.3 86 +10 +10 1012.0 1010.7
18 19.06 Ю 3
{7}
>70 км 9/9 1000 м
[Sc]
+11.5 +9.4 87 +10 +10 1011.9 1010.6 +10.1 +14.2
19 19.06 Ю 2
{3}
н/о н/о +11.7 +9.6 87 +11 +11 1012.1 1010.8
20 19.06 Ю 3
{4}
н/о н/о +11.2 +9.5 89 +9 +9 1012.2 1010.9
21 19.06 ЮВ 1
{3}
н/о н/о +11.2 +10.0 92 +11 +11 1012.4 1011.1
22 19.06 Ю 2
{4}
н/о н/о +11.3 +10.4 94 +10 +10 1012.4 1011.1
23 19.06 Ю 2
{3}
н/о н/о +11.1 +10.2 94 +10 +10 1012.4 1011.1
00 20.06 штиль 0
{4}
н/о н/о +11.2 +10.3 94 +10 +10 1012.6 1011.3
01 20.06 В 3
{4}
н/о н/о +10.9 +9.8 93 +9 +9 1012.5 1011.2
02 20.06 В 3
{5}
н/о н/о +10.9 +9.7 92 +9 +9 1012.4 1011.1
03 20.06 СВ 4
{5}
н/о н/о +10.9 +9.3 90 +8 +8 1012.1 1010.8
04 20.06 СВ 6
{9}
н/о н/о +11.7 +8.7 82 +9 +9 1011.6 1010.3
05 20.06 СВ 6
{9}
н/о н/о +12.2 +8.9 80 +10 +10 1011.3 1010.0
06 20.06 СВ 6
{10}
н/о н/о +12.8 +8.3 74 +10 +10 1010.9 1009.6 +10.2 +12.8
07 20.06 СВ 7
{11}
н/о н/о +13.0 +8.1 72 +10 +10 1010.7 1009.4
08 20.06 СВ 8
{11}
н/о н/о +13.6 +7.2 65 +11 +11 1010.2 1008.9
09 20.06 СВ 9
{12}
н/о н/о +14.0 +6.6 61 +11 +11 1009.9 1008.6
10 20.06 СВ 9
{12}
н/о н/о +14.9 +6.0 55 +13 +13 1009.6 1008.3
11 20.06 СВ 10
{12}
н/о н/о +15.4 +5.6 52 +13 +13 1009.1 1007.8
12 20.06 СВ 9
{13}
н/о н/о +16.1 +5.4 49 +14 +14 1008.6 1007.3
13 20.06 СВ 9
{12}
н/о н/о +17.0 +4.4 43 +16 +16 1008.1 1006.8
14 20.06 СВ 8
{12}
н/о н/о +17.4 +4.4 42 +16 +16 1007.6 1006.3
15 20.06 СВ 8
{11}
н/о н/о +17.4 +4.0 41 +16 +16 1007.0 1005.7
16 20.06 СВ 8
{11}
н/о н/о +18.0 +4.6 41 +17 +17 1006.5 1005.2
17 20.06 СВ 8
{12}
н/о н/о +17.1 +6.0 48 +16 +16 1005.9 1004.6
18 20.06 В 6
{12}
н/о н/о +15.4 +7.9 61 +14 +14 1005.8 1004.5 +12.5 +18.2
19 20.06 СВ 5
{6}
н/о н/о +15.5 +8.0 61 +14 +14 1005.4 1004.1
20 20.06 СВ 8
{11}
н/о н/о +16.6 +7.0 53 +15 +15 1004.8 1003.5
21 20.06 В 7
{12}
н/о н/о +16.0 +7.2 56 +15 +15 1004.6 1003.3
22 20.06 СВ 8
{12}
н/о н/о +15.2 +7.3 59 +13 +13 1004.1 1002.8
23 20.06 СВ 10
{14}
н/о н/о +15.2 +7.3 59 +13 +13 1003.5 1002.2
00 21.06 СВ 9
{14}
н/о н/о +15.1 +7.2 59 +13 +13 1003.2 1001.9
01 21.06 СВ 11
{14}
н/о н/о +14.9 +7.7 62 +12 +12 1002.6 1001.3
02 21.06 СВ 10
{14}
н/о н/о +15.0 +7.6 61 +13 +13 1002.4 1001.1
03 21.06 СВ 9
{13}
н/о н/о +15.0 +7.6 61 +13 +13 1002.1 1000.8
04 21.06 СВ 10
{14}
н/о н/о +15.1 +7.9 62 +13 +13 1001.9 1000.6
05 21.06 СВ 8
{13}
н/о н/о +15.0 +7.8 62 +13 +13 1001.7 1000.4
06 21.06 СВ 7
{14}
н/о н/о +15.1 +7.9 62 +13 +13 1001.6 1000.3 +14.0 +17.1
07 21.06 СВ 7
{11}
н/о н/о +15.2 +8.2 63 +13 +13 1001.9 1000.6
08 21.06 СВ 6
{10}
н/о н/о +14.9 +9.1 68 +13 +13 1002.3 1001.0
09 21.06 Ю 2
{8}
н/о н/о +13.7 +9.9 78 +13 +13 1003.0 1001.7
10 21.06 Ю 2
{4}
н/о н/о +12.3 +11.0 92 +11 +11 1003.3 1002.0
11 21.06 Ю 2
{3}
н/о н/о +12.1 +11.3 95 +11 +11 1003.5 1002.2
12 21.06 Ю 3
{11}
н/о н/о +12.0 +11.4 96 +10 +10 1003.7 1002.4
13 21.06 Ю 3
{4}
н/о н/о +11.8 +11.2 96 +10 +10 1004.0 1002.7
14 21.06 Ю 6
{8}
н/о н/о +11.8 +10.9 94 +9 +9 1004.3 1003.0
15 21.06 Ю 6
{8}
н/о н/о +11.6 +10.7 94 +9 +9 1004.3 1003.0
16 21.06 Ю 4
{7}
н/о н/о +11.3 +10.7 96 +9 +9 1004.6 1003.3
17 21.06 ЮЗ 6
{8}
н/о н/о +11.1 +10.3 95 +8 +8 1004.8 1003.5
18 21.06 ЮЗ 6
{8}
н/о н/о +11.0 +10.4 96 +8 +8 1004.9 1003.6 +10.8 +15.9
19 21.06 ЮЗ 9
{11}
н/о н/о +10.9 +10.0 94 +7 +7 1004.8 1003.5
20 21.06 ЮЗ 10
{12}
н/о н/о +11.0 +9.8 92 +7 +7 1005.2 1003.9
21 21.06 ЮЗ 9
{12}
н/о н/о +11.0 +9.8 92 +7 +7 1005.6 1004.3
22 21.06 ЮЗ 10
{12}
н/о н/о +11.0 +9.8 92 +7 +7 1006.0 1004.7
23 21.06 ЮЗ 8
{11}
н/о н/о +11.0 +9.3 89 +7 +7 1006.3 1005.0
00 22.06 ЮЗ 8
{12}
н/о н/о +11.1 +9.4 89 +7 +7 1006.4 1005.1
01 22.06 ЮЗ 8
{11}
н/о н/о +11.0 +9.4 90 +7 +7 1006.6 1005.3
02 22.06 ЮЗ 7
{10}
н/о н/о +10.9 +9.5 91 +7 +7 1006.7 1005.4
03 22.06 ЮЗ 4
{8}
н/о н/о +11.0 +9.6 91 +9 +9 1006.7 1005.4
04 22.06 Ю 4
{5}
н/о н/о +11.2 +10.0 92 +9 +9 1006.3 1005.0
05 22.06 ЮЗ 5
{6}
н/о н/о +11.2 +9.5 89 +8 +8 1006.2 1004.9
06 22.06 ЮЗ 4
{11}
н/о н/о +11.2 +9.6 90 +9 +9 1006.2 1004.9 +10.3 +11.4
07 22.06 ЮЗ 5
{6}
н/о н/о +11.1 +9.4 89 +8 +8 1006.6 1005.3
08 22.06 ЮЗ 5
{8}
н/о н/о +11.2 +9.0 86 +8 +8 1006.6 1005.3
09 22.06 ЮЗ 5
{6}
н/о н/о +11.2 +9.3 88 +8 +8 1007.0 1005.7
10 22.06 ЮЗ 7
{8}
н/о н/о +11.0 +9.3 89 +8 +8 1007.4 1006.1
11 22.06 ЮЗ 7
{9}
н/о н/о +11.1 +8.0 81 +8 +8 1007.5 1006.2
12 22.06 ЮЗ 7
{9}
н/о н/о +11.2 +9.0 86 +8 +8 1008.0 1006.7
13 22.06 ЮЗ 7
{9}
н/о н/о +11.3 +8.2 81 +8 +8 1008.5 1007.2
14 22.06 ЮЗ 10
{12}
н/о н/о +11.0 +8.1 82 +7 +7 1008.6 1007.3
15 22.06 ЮЗ 8
{12}
н/о н/о +11.0 +8.1 82 +7 +7 1009.0 1007.7
16 22.06 ЮЗ 7
{10}
н/о н/о +11.0 +7.9 81 +8 +8 1009.3 1008.0
17 22.06 ЮЗ 7
{9}
н/о н/о +11.2 +8.3 82 +8 +8 1009.5 1008.2
18 22.06 ЮЗ 8
{12}
н/о н/о +10.9 +8.3 84 +7 +7 1009.6 1008.3 +10.6 +11.9
19 22.06 ЮЗ 7
{10}
н/о н/о +11.0 +8.4 84 +8 +8 1009.8 1008.5
20 22.06 ЮЗ 7
{9}
н/о н/о +10.7 +8.6 87 +7 +7 1010.0 1008.7
21 22.06 ЮЗ 10
{12}
н/о н/о +10.8 +8.0 83 +7 +7 1010.3 1009.0
22 22.06 ЮЗ 8
{12}
н/о н/о +10.8 +8.4 85 +7 +7 1010.8 1009.5
23 22.06 ЮЗ 9
{11}
н/о н/о +10.6 +8.2 85 +7 +7 1011.1 1009.8
00 23.06 ЮЗ 8
{12}
н/о н/о +10.7 +8.5 86 +7 +7 1011.5 1010.2
01 23.06 ЮЗ 9
{12}
н/о н/о +10.5 +7.7 83 +6 +6 1011.9 1010.6
02 23.06 ЮЗ 9
{11}
н/о н/о +10.4 +7.8 84 +6 +6 1012.3 1011.0
03 23.06 ЮЗ 7
{11}
н/о н/о +10.6 +8.7 88 +7 +7 1012.6 1011.3
04 23.06 ЮЗ 9
{11}
н/о н/о +10.5 +7.7 83 +6 +6 1013.0 1011.7
05 23.06 ЮЗ 8
{11}
н/о н/о +10.7 +7.8 82 +7 +7 1013.3 1012.0
06 23.06 ЮЗ 7
{12}
н/о н/о +10.7 +7.9 83 +7 +7 1013.7 1012.4 +9.9 +11.4
07 23.06 ЮЗ 6
{9}
н/о н/о +10.5 +7.4 81 +7 +7 1014.1 1012.8
08 23.06 ЮЗ 8
{11}
н/о н/о +9.9 +7.7 86 +6 +6 1014.7 1013.4
09 23.06 Ю 7
{9}
н/о н/о +10.2 +8.1 87 +6 +6 1015.3 1014.0
10 23.06 ЮЗ 6
{8}
н/о н/о +10.7 +8.1 84 +7 +7 1015.7 1014.4
11 23.06 ЮЗ 7
{9}
н/о н/о +10.5 +8.4 87 +7 +7 1016.3 1015.0
12 23.06 ЮЗ 8
{11}
н/о н/о +10.8 +8.7 87 +7 +7 1016.9 1015.6
13 23.06 Ю 8
{11}
н/о н/о +10.8 +8.7 87 +7 +7 1017.4 1016.1
14 23.06 Ю 5
{10}
н/о н/о +10.6 +9.2 91 +8 +8 1018.0 1016.7
15 23.06 ЮЗ 6
{9}
н/о н/о +11.6 +7.9 78 +9 +9 1018.5 1017.2
16 23.06 ЮЗ 7
{9}
н/о н/о +10.9 +7.8 81 +7 +7 1018.9 1017.6
17 23.06 ЮЗ 7
{10}
н/о н/о +10.8 +8.2 84 +7 +7 1019.0 1017.7
18 23.06 ЮЗ 6
{11}
н/о н/о +10.6 +7.5 81 +7 +7 1019.4 1018.1 +9.7 +11.8
19 23.06 ЮЗ 6
{9}
н/о н/о +10.2 +8.3 88 +7 +7 1019.7 1018.4
20 23.06 ЮЗ 8
{10}
н/о н/о +10.3 +8.1 86 +6 +6 1020.1 1018.8
21 23.06 Ю 7
{9}
н/о н/о +10.0 +7.6 85 +6 +6 1020.5 1019.2
22 23.06 Ю 7
{9}
н/о н/о +10.5 +8.1 85 +7 +7 1020.9 1019.6
23 23.06 Ю 7
{10}
н/о н/о +10.1 +8.4 89 +6 +6 1021.3 1020.0
00 24.06 Ю 8
{10}
н/о н/о +10.5 +8.4 87 +7 +7 1021.6 1020.3
01 24.06 ЮЗ 8
{10}
н/о н/о +10.4 +8.2 86 +6 +6 1021.9 1020.6
02 24.06 ЮЗ 9
{11}
н/о н/о +10.1 +7.7 85 +6 +6 1022.3 1020.9
03 24.06 ЮЗ 10
{12}
н/о н/о +10.1 +8.0 87 +6 +6 1022.7 1021.3
04 24.06 ЮЗ 10
{13}
н/о н/о +10.0 +6.9 81 +6 +6 1023.1 1021.7
05 24.06 ЮЗ 10
{14}
н/о н/о +10.0 +6.2 77 +6 +6 1023.6 1022.2
06 24.06 ЮЗ 12
{14}
н/о н/о +10.3 +6.6 78 +6 +6 1024.2 1022.8 +9.4 +11.0
07 24.06 ЮЗ 11
{14}
н/о н/о +10.0 +6.7 80 +5 +5 1024.7 1023.3
08 24.06 ЮЗ 9
{13}
н/о н/о +9.8 +6.5 80 +6 +6 1025.0 1023.6
09 24.06 ЮЗ 9
{11}
н/о н/о +10.2 +7.1 81 +6 +6 1025.4 1024.0
10 24.06 ЮЗ 10
{12}
н/о н/о +9.9 +7.2 83 +5 +5 1025.9 1024.5
11 24.06 Ю 8
{12}
н/о н/о +10.4 +6.0 74 +7 +7 1026.2 1024.8
12 24.06 Ю 10
{14}
н/о н/о +10.2 +7.6 84 +6 +6 1026.7 1025.3
13 24.06 ЮЗ 10
{12}
н/о н/о +10.1 +6.8 80 +6 +6 1026.9 1025.5
14 24.06 ЮЗ 10
{12}
н/о н/о +10.0 +7.1 82 +6 +6 1027.1 1025.7
15 24.06 ЮЗ 8
{11}
н/о н/о +9.8 +7.2 84 +6 +6 1027.3 1025.9
16 24.06 ЮЗ 6
{10}
н/о н/о +10.0 +7.1 82 +7 +7 1027.5 1026.1
17 24.06 ЮЗ 7
{9}
н/о н/о +9.8 +7.1 83 +6 +6 1027.7 1026.3
18 24.06 ЮЗ 6
{12}
н/о н/о +9.4 +6.7 83 +6 +6 1027.7 1026.3 +8.7 +10.8
19 24.06 ЮЗ 5
{6}
н/о н/о +9.7 +6.8 82 +7 +7 1027.6 1026.2
20 24.06 ЮЗ 5
{6}
н/о н/о +9.8 +6.9 82 +7 +7 1027.8 1026.4
21 24.06 ЮЗ 6
{8}
н/о н/о +9.6 +6.5 81 +6 +6 1027.8 1026.4
22 24.06 ЮЗ 10
{13}
н/о н/о +8.9 +6.9 87 +4 +4 1027.6 1026.2
23 24.06 ЮЗ 8
{12}
н/о н/о +9.0 +6.6 85 +5 +5 1027.3 1025.9
00 25.06 ЮЗ 9
{13}
н/о н/о +9.2 +7.2 87 +5 +5 1026.8 1025.4
01 25.06 ЮЗ 9
{13}
н/о н/о +9.3 +7.6 89 +5 +5 1026.4 1025.0
02 25.06 ЮЗ 7
{11}
н/о н/о +9.3 +7.4 88 +5 +5 1026.3 1024.9
03 25.06 ЮЗ 7
{9}
н/о н/о +9.2 +7.7 90 +5 +5 1026.2 1024.8
04 25.06 ЮЗ 4
{7}
н/о н/о +8.5 +6.5 87 +5 +5 1026.1 1024.7
05 25.06 ЮЗ 7
{9}
н/о н/о +9.5 +7.3 86 +6 +6 1026.0 1024.6
06 25.06 ЮЗ 7
{13}
н/о н/о +9.8 +7.4 85 +6 +6 1026.0 1024.6 +8.5 +10.3
07 25.06 ЮЗ 5
{9}
н/о н/о +10.1 +7.4 83 +7 +7 1026.1 1024.7
08 25.06 ЮЗ 5
{6}
н/о н/о +10.1 +7.5 84 +7 +7 1026.1 1024.7
09 25.06 ЮЗ 6
{8}
н/о н/о +10.1 +7.9 86 +7 +7 1026.2 1024.8
10 25.06 ЮЗ 9
{10}
н/о н/о +10.2 +7.5 83 +6 +6 1026.2 1024.8
11 25.06 ЮЗ 10
{11}
н/о н/о +10.1 +7.9 86 +6 +6 1026.0 1024.6
12 25.06 ЮЗ 9
{11}
н/о н/о +9.6 +7.2 85 +5 +5 1025.9 1024.5
13 25.06 ЮЗ 8
{13}
н/о н/о +9.8 +7.1 83 +6 +6 1025.8 1024.4
14 25.06 ЮЗ 8
{10}
н/о н/о +10.3 +6.5 77 +6 +6 1025.3 1023.9
15 25.06 ЮЗ 9
{10}
н/о н/о +10.0 +6.4 78 +6 +6 1024.9 1023.5
16 25.06 ЮЗ 8
{10}
н/о н/о +9.9 +6.1 77 +6 +6 1024.4 1023.0
17 25.06 ЮЗ 6
{10}
н/о н/о +9.9 +6.8 81 +6 +6 1023.7 1022.3
18 25.06 ЮЗ 8
{13}
н/о н/о +9.9 +6.6 80 +6 +6 1023.3 1021.9 +9.6 +10.7
19 25.06 ЮЗ 8
{10}
н/о н/о +9.7 +6.2 79 +6 +6 1022.9 1021.5
20 25.06 ЮЗ 7
{10}
н/о н/о +9.6 +6.3 80 +6 +6 1022.5 1021.1
21 25.06 ЮЗ 6
{9}
н/о н/о +9.8 +5.6 75 +6 +6 1022.1 1020.7
22 25.06 ЮЗ 7
{9}
н/о н/о +9.8 +6.2 78 +6 +6 1021.9 1020.5
23 25.06 ЮЗ 8
{9}
н/о н/о +9.8 +5.8 76 +6 +6 1021.4 1020.0
00 26.06 ЮЗ 8
{10}
н/о н/о +9.5 +6.8 83 +5 +5 1021.0 1019.6
01 26.06 ЮЗ 8
{11}
н/о н/о +9.3 +7.1 86 +5 +5 1020.6 1019.2
02 26.06 ЮЗ 8
{10}
н/о н/о +9.2 +7.5 89 +5 +5 1020.1 1018.7
03 26.06 ЮЗ 7
{9}
н/о н/о +9.4 +7.9 90 +5 +5 1019.6 1018.2

 

Местоположение метеостанции Маяк Skrova (Норвегия): широта 68.15 долгота 14.65 высота над уровнем моря 11 м.

В архиве по умолчанию представлена погода на Маяке Skrova за последнюю неделю. Архивные данные за месяц целиком и за предыдущие месяцы, начиная с января 2011 года, Вы можете получить, выбрав интересующий диапазон дат из раскрывающегося списка и нажав кнопку "Ввод!".


*Определитесь, кто Вы:
робот инопланетянин человек

Внимание! Время в таблицах - всемирное. Для получения местного времени необходимо прибавить поправку, которая равна 1 ч.

Смотрите также архив погоды в соседних городах и на ближайших метеорологических станциях:

Погода в Сволваер аэропорту (Норвегия) (11 км)
Погода в Лекнесе (Норвегия) (43 км)
Погода в Стокмаркнес аэропорту (Норвегия) (50 км)
Погода в Бё (Норвегия) (52 км)
Погода на Маяке Rotvaer (Норвегия) (59 км)
Погода в Драге (Норвегия) (60 км)
Погода в Сортланне (Норвегия) (69 км)
Погода в Хеллигвере (Норвегия) (89 км)
Погода в Аэропорту Харстад/Нарвик (Норвегия) (92 км)
Погода в Аэропорту Vaeroy Heliport (Норвегия) (98 км)

Пояснения к столбцам:

Ветер - указаны скорость ветра в м/с - средняя за 10 мин, порывы в срок и между сроками (в фигурных скобках) и направление, откуда дует ветер: С - северный, СВ - северо-восточный, В - восточный, ЮВ - юго-восточный, Ю - южный, ЮЗ - юго-западный, З - западный, СЗ - северо-западный.
Видимость - горизонтальная дальность видимости в метрах или километрах. При видимости от 1 до 10 км при отсутствии осадков обычно наблюдается дымка, при ухудшении видимости до 1 км и менее - туман. В сухую погоду видимость может ухудшаться дымом, пылью или мглою.
Явления - указаны атмосферные явления, наблюдавшиеся в срок или в последний час перед сроком; фигурными скобками обозначены явления, наблюдавшиеся между сроками (за 1-3 часа до срока); квадратными скобками обозначены град или гололедные отложения с указанием их диаметра в мм.
Облачность - указаны через наклонную черту общая и нижняя облачность в баллах и высота нижней границы облаков в метрах; квадратными скобками обозначены формы облаков: Ci - перистые, Cs - перисто-слоистые, Cc - перисто-кучевые, Ac - высококучевые, As - высокослоистые, Sc - слоисто-кучевые, Ns - слоисто-дождевые, Cu - кучевые, Cb - кучево-дождевые. Подробнее классификацию облаков см. в Атласе облаков (PDF).
T - Температура воздуха - температура, измеренная на высоте 2 м над землей.
Td - Температура точки росы - температура, при понижении до которой содержащийся в воздухе водяной пар достигнет насыщения.
f - Относительная влажность воздуха - влажноcть воздуха, измеренная на высоте 2 м над землей.
Te - Эффективная температура - температура, которую ощущает одетый по сезону человек в тени. Характеристика душности погоды. При расчете учитывается влияние влажности воздуха и скорости ветра на теплоощущения человека.
Tes - Эффективная температура на солнце - температура, которую ощущает человек, с поправкой на солнечный нагрев. Характеристика знойности погоды. Зависит от высоты солнца над горизонтом, облачности и скорости ветра. Ночью, в пасмурную погоду, а также при ветре 12 м/с и более поправка равна нулю.
P - Атмосферное давление - приведенное к уровню моря атмосферное давление.
Po - Атмосферное давление - измеренное на уровне метеостанции атмосферное давление.
Tmin - Минимальная температура - минимум температуры воздуха на высоте 2 м над землей.
Tmax - Максимальная температура - максимум температуры воздуха на высоте 2 м над землей.
R - Количество осадков - Количество выпавших осадков за период времени, мм. При наведении курсора мыши на число - период времени, за который выпало указанное количество осадков.
R24 - Количество осадков - Количество выпавших осадков за 24 часа, мм.
S - Снежный покров - Высота снежного покрова, см. При наведении курсора мыши на число - состояние снежного покрова и степень покрытия местности в баллах.